Timestamp[UTC];2m Lufttemperatur [degC] (tas);Stations-Luftdruck [Pa] (ps);relative Luftfeuchtigkeit [%] (hurs);spezifische Luftfeuchtigkeit [kg/kg] (huss);Niederschlagsmenge [mm] (pr);Windgeschwindigkeit in 2m [m/s] (sfcWind);Windrichtung [deg];maximale Windgeschwindigkeit [m/s] (wsgsmax);u-Windkomponente [m/s] (uas);v-Windkomponente [m/s] (vas);Sonneneinstrahlung [W/m2];Blitzrate [n];Blitzentfernung [km];Bodenfeuchte in 5cm Tiefe [vol%];Bodenfeuchte in 15cm Tiefe [vol%];Bodenfeuchte in 30cm Tiefe [vol%];Bodenfeuchte in 60cm Tiefe [vol%];Bodentemperatur in 5cm Tiefe [degC];Bodentemperatur in 15cm Tiefe [degC];Bodentemperatur in 30cm Tiefe [degC];Bodentemperatur in 60cm Tiefe [degC];Matrixpotential in 30cm Tiefe [kPa];Bodenfeuchte aus CRNS [vol%] (mrso);Neutronen Anzahl [N/h]
2020-10-17 00:00:00;7,6;100382;90;0,0058;0,0;1,7;294;2,7;0,67;-1,53;0;0;0;24,1;26,8;22,9;21,9;8,2;9,2;9,9;11,3;-44,9;20,8;1586
2020-10-17 01:00:00;7,3;100350;91;0,0058;0,0;1,5;305;2,2;0,87;-1,23;0;0;0;24,1;26,8;22,9;21,9;8,1;9,2;9,9;11,3;-45,1;20,7;1558
2020-10-17 02:00:00;7,0;100315;92;0,0058;0,0;1,6;300;2,2;0,82;-1,36;0;0;0;24,1;26,8;22,9;21,9;8,0;9,1;9,9;11,3;-45,2;20,9;1590
2020-10-17 03:00:00;6,2;100312;94;0,0056;0,0;1,0;310;1,5;0,62;-0,7;0;0;0;24,1;26,8;23,0;21,9;7,7;9,0;9,9;11,3;-45,3;21,2;1615
2020-10-17 04:00:00;5,2;100302;97;0,0053;0,0;1,1;318;1,5;0,76;-0,67;0;0;0;24,1;26,8;23,0;21,9;7,2;8,9;9,8;11,3;-45,4;21,1;1629
2020-10-17 05:00:00;5,7;100305;96;0,0055;0,0;0,9;276;1,4;0,11;-0,92;0;0;0;24,1;26,8;23,0;21,9;7,1;8,7;9,8;11,3;-45,4;21,2;1631
2020-10-17 06:00:00;6,0;100305;98;0,0057;0,0;1,1;303;1,8;0,51;-0,74;4;0;0;24,1;26,8;23,0;21,9;7,2;8,6;9,8;11,3;-45,5;20,9;1631
2020-10-17 07:00:00;6,3;100335;98;0,0058;0,0;1,6;314;2,4;1,08;-1,14;22;0;0;24,0;26,8;23,0;21,9;7,3;8,5;9,7;11,3;-45,5;20,7;1648
2020-10-17 08:00:00;6,8;100318;97;0,0059;0,0;1,6;289;2,3;0,52;-1,45;54;0;0;24,0;26,8;23,0;21,9;7,6;8,5;9,6;11,3;-45,6;20,7;1710
2020-10-17 09:00:00;7,3;100327;95;0,006;0,0;1,4;279;2,0;0,23;-1,33;107;0;0;24,0;26,8;23,1;21,9;8,1;8,6;9,6;11,3;-45,6;20,7;1645
2020-10-17 10:00:00;8,0;100338;88;0,0059;0,0;1,1;303;1,7;0,61;-0,88;77;0;0;24,0;26,8;23,1;21,9;8,6;8,7;9,6;11,3;-45,6;20,6;1602
2020-10-17 11:00:00;8,4;100300;85;0,0058;0,0;1,6;290;2,7;0,57;-1,49;199;0;0;24,0;26,8;23,1;21,9;9,2;8,9;9,6;11,3;-45,6;20,5;1554
2020-10-17 12:00:00;9,2;100258;75;0,0054;0,0;1,7;326;3,3;1,37;-0,56;241;0;0;24,0;26,8;23,1;21,9;10,1;9,2;9,6;11,3;-45,6;20,4;1654
2020-10-17 13:00:00;9,4;100248;73;0,0053;0,0;2,1;338;3,3;1,93;-0,75;178;0;0;24,0;26,8;23,1;21,9;10,6;9,5;9,6;11,3;-45,6;20,3;1564
2020-10-17 14:00:00;9,5;100250;74;0,0054;0,0;2,2;236;3,3;2,19;-0,15;132;0;0;24,1;26,7;23,1;21,9;10,6;9,8;9,7;11,3;-45,6;20,1;1517
2020-10-17 15:00:00;9,5;100250;74;0,0055;0,0;2,0;345;3,0;1,94;-0,5;64;0;0;24,1;26,8;23,1;21,9;10,4;10,0;9,8;11,2;-45,7;20,0;1639
2020-10-17 16:00:00;9,1;100278;80;0,0058;0,0;1,1;356;1,7;1,14;-0,06;9;0;0;24,0;26,7;23,1;22,0;9,9;10,1;9,8;11,3;-45,7;19,8;1581
2020-10-17 17:00:00;8,6;100338;85;0,0059;0,0;0,6;295;0,9;0,18;-0,42;0;0;0;24,0;26,7;23,1;22,0;9,6;10,0;9,9;11,2;-45,7;19,7;1695
2020-10-17 18:00:00;7,7;100375;88;0,0058;0,0;0,9;258;1,2;-0,16;-0,87;0;0;0;24,0;26,7;23,1;22,0;9,1;9,9;10,0;11,2;-45,7;19,7;1677
2020-10-17 19:00:00;7,3;100398;92;0,0059;0,0;0,9;248;1,3;-0,31;-0,8;0;0;0;24,0;26,7;23,1;21,9;8,7;9,8;10,0;11,2;-45,7;19,7;1627
2020-10-17 20:00:00;7,5;100415;92;0,0059;0,0;1,3;259;1,9;-0,26;-1,32;0;0;0;24,0;26,7;23,1;22,0;8,6;9,6;10,0;11,2;-45,6;19,7;1561
2020-10-17 21:00:00;7,0;100428;93;0,0058;0,0;1,2;223;1,6;-0,2;-0,96;0;0;0;24,0;26,7;23,1;22,0;8,4;9,5;10,0;11,2;-45,7;19,8;1651
2020-10-17 22:00:00;6,2;100442;94;0,0055;0,0;0,4;192;0,7;-0,37;-0,08;0;0;0;23,9;26,8;23,1;21,9;8,0;9,4;10,0;11,2;-45,6;19,8;1620
2020-10-17 23:00:00;5,3;100455;95;0,0053;0,0;0,7;189;0,9;-0,64;-0,11;0;0;0;23,9;26,8;23,1;21,9;7,4;9,2;10,0;11,3;-45,6;19,7;1696
2020-10-18 00:00:00;4,0;100445;98;0,0049;0,0;1,0;227;1,3;-0,65;-0,72;0;0;0;23,9;26,8;23,2;21,9;6,7;8,9;10,0;11,3;-45,5;19,4;1632
2020-10-18 01:00:00;3,7;100462;98;0,0048;0,0;0,9;209;1,1;-0,74;-0,41;0;0;0;23,9;26,8;23,2;21,9;6,3;8,6;9,9;11,3;-45,5;19,4;1627
2020-10-18 02:00:00;4,0;100452;98;0,005;0,0;1,2;220;1,5;-0,88;-0,77;0;0;0;23,9;26,8;23,2;22,0;6,0;8,3;9,8;11,3;-45,4;19,1;1642
2020-10-18 03:00:00;5,0;100447;97;0,0052;0,0;1,1;203;1,5;-0,94;-0,38;0;0;0;23,9;26,8;23,2;22,0;6,1;8,1;9,7;11,3;-45,3;19,0;1688
2020-10-18 04:00:00;5,8;100435;96;0,0055;0,0;1,1;256;1,7;-0,26;-1,05;0;0;0;23,9;26,8;23,2;22,0;6,4;8,0;9,6;11,3;-45,2;19,0;1638
2020-10-18 05:00:00;6,6;100435;92;0,0056;0,0;1,7;256;2,5;-0,39;-1,69;0;0;0;23,8;26,8;23,2;21,9;6,5;8,0;9,5;11,2;-45,1;18,9;1621
2020-10-18 06:00:00;6,7;100462;91;0,0055;0,0;1,4;256;2,1;-0,31;-1,32;7;0;0;23,8;26,8;23,2;21,9;6,6;8,0;9,4;11,2;-45,1;18,9;1596
2020-10-18 07:00:00;6,2;100490;94;0,0055;0,0;0,5;142;0,8;-0,23;0,19;76;0;0;23,8;26,8;23,2;22,0;6,8;7,9;9,4;11,2;-45,0;18,9;1633
2020-10-18 08:00:00;8,3;100515;89;0,0061;0,0;0,6;125;1,1;-0,23;0,45;115;0;0;23,8;26,8;23,2;21,9;7,7;8,0;9,3;11,2;-44,9;18,9;1612
2020-10-18 09:00:00;9,1;100518;82;0,0059;0,0;1,0;234;1,9;-0,65;-0,53;136;0;0;23,8;26,7;23,2;22,0;8,5;8,3;9,3;11,2;-44,8;18,9;1592
2020-10-18 10:00:00;9,9;100500;79;0,006;0,0;0,8;48;1,7;0,45;0,42;183;0;0;23,8;26,7;23,2;21,9;9,4;8,6;9,2;11,2;-44,8;19,1;1621
2020-10-18 11:00:00;10,5;100475;77;0,006;0,0;1,1;155;2,0;-0,46;0,03;215;0;0;23,9;26,7;23,2;22,0;10,3;9,0;9,3;11,2;-44,8;19,0;1669
2020-10-18 12:00:00;11,4;100425;70;0,0059;0,0;2,2;304;3,7;1,16;-1,24;218;0;0;23,9;26,7;23,2;21,9;11,1;9,4;9,3;11,1;-44,7;19,1;1624
2020-10-18 13:00:00;11,4;100432;73;0,0061;0,0;2,8;330;4,6;2,25;-1,42;156;0;0;23,9;26,7;23,2;21,9;11,2;9,8;9,4;11,1;-44,6;19,3;1692
2020-10-18 14:00:00;11,0;100417;76;0,0062;0,0;3,7;299;5,9;1,83;-3,26;100;0;0;23,9;26,7;23,2;21,9;10,9;10,1;9,5;11,1;-44,6;19,2;1574
2020-10-18 15:00:00;11,0;100395;76;0,0062;0,0;3,2;278;5,0;0,5;-3,16;75;0;0;23,8;26,6;23,2;21,9;10,6;10,2;9,7;11,1;-44,6;19,2;1591
2020-10-18 16:00:00;10,6;100408;78;0,0062;0,0;2,4;255;4,0;-0,61;-2,33;13;0;0;23,8;26,7;23,2;21,9;10,2;10,2;9,8;11,1;-44,5;19,3;1657
2020-10-18 17:00:00;10,1;100468;81;0,0062;0,0;2,1;225;3,2;-1,4;-1,46;0;0;0;23,8;26,6;23,2;21,9;9,7;10,2;9,9;11,1;-44,6;19,4;1630
2020-10-18 18:00:00;9,8;100510;83;0,0062;0,0;1,8;222;2,7;-1,3;-1,09;0;0;0;23,8;26,6;23,2;22,0;9,5;10,0;9,9;11,1;-44,5;19,5;1642
2020-10-18 19:00:00;9,4;100512;85;0,0062;0,0;1,2;266;1,8;-0,11;-1,12;0;0;0;23,8;26,6;23,2;22,0;9,2;9,9;10,0;11,1;-44,5;19,5;1627
2020-10-18 20:00:00;9,2;100528;86;0,0062;0,0;1,0;245;1,8;-0,41;-0,94;0;0;0;23,8;26,6;23,2;22,0;9,1;9,8;10,0;11,1;-44,5;19,5;1537
2020-10-18 21:00:00;9,4;100550;86;0,0063;0,0;1,6;247;2,5;-0,52;-1,48;0;0;0;23,8;26,6;23,2;21,9;9,0;9,7;10,0;11,1;-44,5;19,6;1507
2020-10-18 22:00:00;9,5;100558;88;0,0065;0,0;2,1;260;3,4;-0,36;-2,06;0;0;0;23,7;26,6;23,2;22,0;8,9;9,7;10,0;11,1;-44,5;19,5;1621
2020-10-18 23:00:00;9,0;100545;91;0,0065;0,0;1,3;258;2,0;-0,24;-1,26;0;0;0;23,7;26,6;23,2;21,9;8,8;9,6;10,0;11,1;-44,4;19,6;1610
2020-10-19 00:00:00;8,8;100550;92;0,0065;0,0;1,3;277;1,9;0,17;-1,24;0;0;0;23,7;26,6;23,2;22,0;8,7;9,5;10,0;11,1;-44,4;19,7;1528
2020-10-19 01:00:00;8,9;100538;94;0,0067;0,0;1,2;274;2,1;0,05;-1,2;0;0;0;23,7;26,6;23,2;22,1;8,7;9,5;10,0;11,1;-44,4;19,6;1648
2020-10-19 02:00:00;8,4;100528;96;0,0066;0,0;0,7;168;1,2;-0,58;0,08;0;0;0;23,7;26,6;23,2;22,2;8,6;9,4;10,0;11,1;-44,4;20,0;1612
2020-10-19 03:00:00;8,2;100515;97;0,0065;0,0;0,7;199;1,2;-0,41;0,1;0;0;0;23,7;26,6;23,3;22,1;8,5;9,4;10,0;11,1;-44,3;19,9;1577
2020-10-19 04:00:00;7,8;100492;99;0,0065;0,0;0,8;177;1,5;-0,48;-0,02;0;0;0;23,7;26,6;23,3;22,2;8,4;9,3;9,9;11,1;-44,2;19,7;1594
2020-10-19 05:00:00;6,8;100472;99;0,0061;0,0;1,1;125;1,6;-0,51;0,84;0;1;4;23,7;26,6;23,3;21,9;7,9;9,3;9,9;11,1;-44,2;19,9;1541
2020-10-19 06:00:00;5,4;100465;99;0,0055;0,0;0,6;140;1,0;-0,46;0,36;8;1;2;23,6;26,6;23,3;21,8;7,3;9,1;9,9;11,1;-44,2;19,8;1563
2020-10-19 07:00:00;5,4;100472;100;0,0056;0,0;0,6;190;0,9;-0,54;-0,12;57;0;0;23,6;26,6;23,3;21,8;7,2;8,8;9,9;11,1;-44,2;19,8;1612
2020-10-19 08:00:00;8,2;100500;100;0,0067;0,0;0,8;192;1,5;-0,76;-0,26;121;0;0;23,6;26,6;23,3;21,8;8,1;8,7;9,8;11,1;-44,1;19,7;1582
2020-10-19 09:00:00;10,0;100465;93;0,0071;0,0;1,6;198;2,4;-1,55;-0,52;172;0;0;23,6;26,6;23,3;21,9;9,0;8,9;9,7;11,1;-44,1;19,6;1631
2020-10-19 10:00:00;10,8;100440;86;0,0069;0,0;1,5;168;2,6;-1,1;0,37;308;0;0;23,6;26,6;23,3;22,0;10,0;9,1;9,7;11,1;-44,0;19,4;1573
2020-10-19 11:00:00;12,5;100358;75;0,0067;0,0;2,0;107;4,1;-0,58;1,89;461;0;0;23,7;26,6;23,3;22,0;12,2;9,6;9,7;11,1;-44,0;19,3;1607
2020-10-19 12:00:00;13,4;100240;66;0,0063;0,0;3,6;155;6,0;-3,12;1,54;450;2;13;23,7;26,6;23,3;22,0;13,7;10,4;9,7;11,1;-43,9;19,4;1681
2020-10-19 13:00:00;13,2;100217;62;0,0059;0,0;2,9;154;4,4;-2,32;1,32;236;2;3;23,7;26,5;23,3;21,9;13,9;11,1;9,9;11,1;-43,9;19,2;1533
2020-10-19 14:00:00;12,9;100162;62;0,0058;0,0;3,3;179;5,1;-3,32;0,01;171;2;2;23,6;26,5;23,3;22,0;13,1;11,5;10,0;11,1;-44,0;19,2;1627
2020-10-19 15:00:00;11,5;100142;67;0,0056;0,0;2,1;182;3,5;-2,05;-0,06;79;1;2;23,6;26,5;23,3;22,0;12,2;11,6;10,2;11,1;-43,9;19,3;1722
2020-10-19 16:00:00;9,2;100113;76;0,0055;0,0;1,4;156;2,0;-1,28;0,55;12;0;0;23,6;26,5;23,3;22,0;11,1;11,5;10,4;11,1;-44,0;19,2;1615
2020-10-19 17:00:00;7,4;100095;84;0,0054;0,0;1,5;147;2,3;-1,25;0,78;0;0;0;23,6;26,5;23,3;21,9;10,0;11,2;10,5;11,1;-44,0;19,2;1732
2020-10-19 18:00:00;7,0;100092;85;0,0053;0,0;1,8;155;2,6;-1,53;0,76;0;0;0;23,6;26,5;23,3;21,9;9,1;10,8;10,6;11,1;-44,0;19,2;1687
2020-10-19 19:00:00;6,3;100035;86;0,0051;0,0;2,0;147;3,2;-1,67;1,04;0;0;0;23,5;26,5;23,3;21,8;8,4;10,4;10,6;11,1;-44,0;19,0;1732
2020-10-19 20:00:00;6,4;99962;88;0,0052;0,0;2,6;129;3,8;-1,61;1,98;0;0;0;23,5;26,5;23,3;21,8;7,9;10,0;10,6;11,1;-44,0;19,1;1651
2020-10-19 21:00:00;6,2;99842;88;0,0052;0,0;3,4;114;5,1;-1,47;3,1;0;0;0;23,5;26,5;23,3;21,9;7,5;9,7;10,5;11,1;-43,9;19,0;1725
2020-10-19 22:00:00;5,6;99760;88;0,005;0,0;2,7;111;3,8;-0,97;2,49;0;0;0;23,4;26,6;23,3;21,9;7,1;9,3;10,5;11,1;-43,9;19,1;1802
2020-10-19 23:00:00;6,7;99658;83;0,0051;0,0;4,4;113;7,0;-1,81;3,9;0;0;0;23,4;26,6;23,3;21,8;6,8;9,1;10,3;11,2;-43,8;19,0;1677
2020-10-20 00:00:00;7,0;99568;81;0,0051;0,0;3,7;108;5,7;-1,21;3,5;0;0;0;23,4;26,6;23,3;21,9;6,7;8,8;10,2;11,2;-43,8;19,1;1778
2020-10-20 01:00:00;7,7;99480;80;0,0053;0,0;4,2;110;6,1;-1,45;3,92;0;0;0;23,4;26,6;23,3;21,9;6,8;8,6;10,1;11,2;-43,7;19,2;1795
2020-10-20 02:00:00;7,6;99385;82;0,0054;0,0;4,3;121;6,3;-2,28;3,66;0;0;0;23,4;26,6;23,4;21,8;6,9;8,5;10,0;11,2;-43,7;18,8;1705
2020-10-20 03:00:00;9,6;99345;78;0,0058;0,0;4,1;136;6,5;-2,96;2,82;0;0;0;23,3;26,6;23,4;21,8;7,0;8,5;9,9;11,2;-43,6;18,8;1771
2020-10-20 04:00:00;9,4;99260;80;0,0059;0,0;4,6;128;6,5;-2,85;3,62;0;0;0;23,3;26,6;23,4;21,8;7,2;8,4;9,8;11,2;-43,6;18,9;1753
2020-10-20 05:00:00;9,5;99218;80;0,006;0,0;4,7;114;7,0;-1,92;4,29;0;0;0;23,3;26,5;23,4;21,8;7,2;8,4;9,7;11,2;-43,6;18,9;1745
2020-10-20 06:00:00;10,3;99218;79;0,0062;0,0;1,9;184;3,4;-0,46;0,75;5;1;2;23,4;26,5;23,4;21,8;7,4;8,4;9,6;11,2;-43,5;19,0;1789
2020-10-20 07:00:00;12,4;99200;73;0,0066;0,0;2,4;185;5,7;-2,34;-0,2;43;0;0;23,3;26,5;23,4;21,9;7,7;8,4;9,6;11,2;-43,5;19,1;1727
2020-10-20 08:00:00;11,7;99222;80;0,0069;0,0;2,2;73;3,9;0,44;1,99;92;1;0;23,3;26,5;23,4;21,9;8,6;8,6;9,5;11,2;-43,5;19,1;1800
2020-10-20 09:00:00;13,0;99278;75;0,007;0,0;1,9;170;4,0;-1,45;0,22;38;7;7;23,2;26,5;23,4;21,8;9,0;8,8;9,5;11,1;-43,5;19,1;1713
2020-10-20 10:00:00;13,9;99328;72;0,0071;0,0;3,8;192;6,5;-3,68;-0,81;39;0;0;23,3;26,5;23,4;21,8;9,4;9,0;9,5;11,1;-43,5;19,3;1769
2020-10-20 11:00:00;14,3;99262;72;0,0074;0,0;5,0;191;8,9;-4,9;-1,01;46;0;0;23,3;26,5;23,4;21,8;9,8;9,3;9,5;11,1;-43,4;19,5;1697
2020-10-20 12:00:00;14,8;99228;72;0,0076;0,0;4,5;195;7,8;-4,35;-1,21;35;1;5;23,3;26,5;23,4;21,8;10,2;9,5;9,6;11,1;-43,4;19,5;1763
2020-10-20 13:00:00;15,6;99212;72;0,008;0,0;4,5;204;8,1;-3,89;-1,88;24;0;0;23,3;26,4;23,4;21,9;10,5;9,7;9,6;11,1;-43,5;19,7;1822
2020-10-20 14:00:00;14,9;99232;77;0,0082;0,02;5,9;231;9,9;-3,66;-4,54;23;0;0;23,3;26,4;23,4;21,9;10,7;9,9;9,7;11,1;-43,4;19,9;1756
2020-10-20 15:00:00;14,9;99230;79;0,0084;0,0;3,8;214;7,1;-3,11;-2,17;14;0;0;23,4;26,4;23,4;21,8;10,8;10,1;9,8;11,0;-43,5;19,7;1736
2020-10-20 16:00:00;14,8;99248;81;0,0085;0,0;2,8;178;4,7;-2,74;-0,03;1;0;0;23,5;26,4;23,4;21,9;10,9;10,3;9,9;11,0;-43,5;19,7;1739
2020-10-20 17:00:00;14,0;99273;84;0,0085;0,0;2,7;155;4,1;-2,47;1,14;0;0;0;23,4;26,4;23,4;21,8;10,9;10,4;10,0;11,0;-43,5;19,7;1717
2020-10-20 18:00:00;13,6;99268;86;0,0084;0,0;2,0;153;3,2;-1,74;0,87;0;0;0;23,4;26,4;23,4;21,8;10,8;10,5;10,0;11,0;-43,5;19,7;1724
2020-10-20 19:00:00;13,7;99230;83;0,0082;0,0;2,5;150;4,1;-2,2;1,1;0;0;0;23,4;26,4;23,4;21,8;10,8;10,5;10,1;11,0;-43,5;19,8;1791
2020-10-20 20:00:00;13,7;99165;83;0,0082;0,0;2,0;184;3,4;-1,66;0,47;0;0;0;23,4;26,4;23,4;21,8;10,8;10,6;10,2;11,0;-43,5;19,8;1732
2020-10-20 21:00:00;14,0;99163;84;0,0084;0,0;1,8;202;3,8;-1,57;-0,51;0;0;0;23,4;26,4;23,4;21,8;10,8;10,6;10,3;11,0;-43,5;19,9;1668
2020-10-20 22:00:00;13,1;99115;90;0,0086;0,14;1,9;129;3,0;-0,66;1,14;0;0;0;23,4;26,4;23,4;21,8;10,8;10,7;10,3;11,0;-43,5;19,9;1733
2020-10-20 23:00:00;12,5;99062;92;0,0084;0,02;2,1;120;3,2;-1,08;1,8;0;0;0;23,4;26,4;23,3;21,8;10,8;10,7;10,4;11,0;-43,5;20,1;1707
2020-10-21 00:00:00;12,5;99005;91;0,0083;0,0;2,7;118;3,9;-1,29;2,39;0;0;0;23,4;26,4;23,3;21,8;10,8;10,7;10,4;11,0;-43,5;20,0;1691
2020-10-21 01:00:00;12,5;98970;90;0,0083;0,09;2,7;121;4,0;-1,41;2,28;0;0;0;23,4;26,4;23,3;22,0;10,7;10,7;10,5;11,0;-43,5;20,0;1725
2020-10-21 02:00:00;12,5;98895;88;0,008;0,08;2,7;124;4,2;-1,42;2,1;0;0;0;23,4;26,4;23,3;21,9;10,7;10,7;10,5;11,1;-43,5;20,3;1817
2020-10-21 03:00:00;13,2;98858;80;0,0077;0,05;3,1;146;5,1;-2,55;1,67;0;0;0;23,5;26,3;23,3;21,8;10,7;10,8;10,5;11,1;-43,5;20,3;1852
2020-10-21 04:00:00;13,0;98758;79;0,0075;0,07;3,5;135;6,4;-2,46;2,48;0;0;0;23,5;26,3;23,3;21,8;10,6;10,7;10,6;11,1;-43,5;20,3;1802
2020-10-21 05:00:00;13,1;98722;81;0,0077;0,12;4,9;167;8,1;-4,69;0,77;0;0;0;23,5;26,3;23,3;21,8;10,6;10,7;10,6;11,1;-43,5;20,2;1772
2020-10-21 06:00:00;13,5;98700;84;0,0082;0,1;7,6;196;11,0;-7,28;-2,2;4;0;0;23,6;26,3;23,3;21,8;10,7;10,8;10,6;11,1;-43,5;20,2;1803
2020-10-21 07:00:00;13,5;98715;80;0,0078;0,0;5,3;187;8,1;-5,19;-0,69;16;0;0;23,7;26,3;23,4;21,8;10,9;10,8;10,6;11,1;-43,5;20,2;1773
2020-10-21 08:00:00;14,8;98695;68;0,0072;0,0;6,8;187;10,8;-6,67;-0,93;48;0;0;23,8;26,3;23,4;21,8;10,9;10,8;10,7;11,1;-43,6;20,3;1823
2020-10-21 09:00:00;15,9;98675;64;0,0072;0,0;6,1;184;10,4;-6,04;-0,47;76;0;0;23,8;26,3;23,4;21,8;11,1;10,9;10,7;11,1;-43,5;20,3;1818
2020-10-21 10:00:00;17,7;98635;59;0,0076;0,0;6,7;182;10,6;-6,66;-0,34;212;0;0;23,8;26,3;23,4;21,8;11,7;11,0;10,7;11,2;-43,6;20,3;1749
2020-10-21 11:00:00;19,3;98570;55;0,0078;0,0;8,0;199;13,0;-7,5;-2,68;324;1;2;23,9;26,4;23,4;21,8;12,9;11,2;10,7;11,2;-43,5;20,3;1832
2020-10-21 12:00:00;20,1;98512;54;0,008;0,0;7,9;201;13,7;-7,29;-2,92;409;0;0;23,9;26,4;23,4;21,8;14,3;11,7;10,8;11,2;-43,5;20,1;1821
2020-10-21 13:00:00;20,5;98473;53;0,0081;0,0;7,6;200;12,1;-7,11;-2,64;354;0;0;23,8;26,4;23,4;21,8;15,0;12,2;10,9;11,2;-43,6;20,0;1739
2020-10-21 14:00:00;21,0;98480;52;0,0081;0,0;7,7;205;13,3;-6,96;-3,36;271;1;4;23,8;26,5;23,4;21,8;15,2;12,7;11,0;11,2;-43,6;20,0;1854
2020-10-21 15:00:00;20,9;98495;52;0,0082;0,0;8,7;216;14,0;-7,0;-5,18;152;0;0;23,7;26,5;23,4;21,8;14,9;13,0;11,2;11,2;-43,6;20,1;1812
2020-10-21 16:00:00;20,3;98575;55;0,0082;0,0;8,9;221;15,0;-6,6;-5,83;32;0;0;23,7;26,5;23,4;21,8;14,3;13,1;11,4;11,2;-43,6;20,2;1902
2020-10-21 17:00:00;19,5;98665;57;0,0083;0,0;7,4;224;14,0;-5,26;-5,23;0;1;4;23,6;26,5;23,4;21,8;13,8;13,1;11,5;11,2;-43,7;20,1;1782
2020-10-21 18:00:00;19,2;98768;58;0,0082;0,0;7,4;229;12,3;-4,8;-5,65;0;0;0;23,6;26,5;23,4;21,8;13,5;13,0;11,7;11,3;-43,8;20,1;1794
2020-10-21 19:00:00;19,0;98862;61;0,0084;0,0;7,0;222;12,4;-5,12;-4,78;0;0;0;23,5;26,5;23,4;21,8;13,3;13,0;11,8;11,3;-43,7;20,1;1758
2020-10-21 20:00:00;18,6;98960;64;0,0086;0,0;5,2;224;9,0;-3,68;-3,64;0;0;0;23,5;26,5;23,4;21,8;13,1;12,9;11,8;11,3;-43,8;20,1;1758
2020-10-21 21:00:00;18,3;99058;64;0,0085;0,0;4,7;230;9,2;-3,05;-3,63;0;0;0;23,4;26,4;23,4;21,8;12,9;12,8;11,9;11,3;-43,8;20,1;1646
2020-10-21 22:00:00;17,6;99148;65;0,0082;0,0;2,2;213;5,1;-1,72;-1,28;0;0;0;23,4;26,4;23,4;21,8;12,5;12,8;11,9;11,4;-43,8;20,1;1769
2020-10-21 23:00:00;16,4;99242;69;0,0081;0,0;2,3;190;4,6;-2,18;-0,45;0;0;0;23,4;26,4;23,4;21,9;12,2;12,6;12,0;11,4;-43,8;20,0;1784
2020-10-22 00:00:00;15,8;99285;74;0,0084;0,0;2,6;194;4,2;-2,5;-0,62;0;0;0;23,4;26,4;23,4;21,8;12,1;12,5;12,0;11,4;-43,8;19,9;1738
2020-10-22 01:00:00;14,8;99322;79;0,0083;0,0;1,2;188;2,7;-1,17;-0,16;0;0;0;23,4;26,4;23,5;21,8;11,6;12,4;12,0;11,5;-43,8;19,9;1667
2020-10-22 02:00:00;13,7;99325;83;0,0082;0,0;0,6;128;1,8;-0,3;0,02;0;0;0;23,4;26,4;23,4;21,8;11,1;12,2;12,0;11,5;-43,8;19,8;1715
2020-10-22 03:00:00;13,8;99350;86;0,0084;0,0;1,2;139;2,3;-0,92;0,48;0;0;0;23,4;26,4;23,4;21,8;11,0;12,0;12,0;11,5;-43,8;19,8;1720
2020-10-22 04:00:00;15,1;99350;83;0,009;0,0;2,2;176;3,6;-2,18;0,13;0;0;0;23,3;26,4;23,4;21,8;11,3;11,8;11,9;11,6;-43,8;19,9;1720
2020-10-22 05:00:00;15,6;99365;82;0,0091;0,0;2,8;196;5,0;-2,66;-0,75;0;0;0;23,3;26,4;23,4;21,8;11,6;11,8;11,9;11,6;-43,8;20,0;1728
2020-10-22 06:00:00;15,8;99390;80;0,0091;0,0;2,3;206;4,3;-2,08;-0,95;1;0;0;23,2;26,4;23,4;21,8;11,8;11,9;11,8;11,6;-43,8;19,8;1655
2020-10-22 07:00:00;15,6;99450;82;0,0092;0,0;1,9;192;3,9;-1,85;-0,4;55;1;2;23,2;26,3;23,4;21,8;12,0;11,9;11,8;11,6;-43,7;20,0;1667
2020-10-22 08:00:00;16,4;99530;78;0,0092;0,0;4,1;201;6,8;-3,79;-1,48;138;1;2;23,2;26,3;23,4;21,8;12,6;12,0;11,8;11,7;-43,7;19,9;1674
2020-10-22 09:00:00;17,6;99518;73;0,0091;0,0;4,9;219;8,1;-3,8;-3,13;246;0;0;23,3;26,3;23,4;22,0;13,5;12,2;11,8;11,7;-43,6;19,8;1678
2020-10-22 10:00:00;18,0;99502;70;0,0091;0,0;5,0;214;8,3;-4,15;-2,77;299;1;2;23,4;26,3;23,4;22,1;14,7;12,6;11,8;11,7;-43,7;19,7;1702
2020-10-22 11:00:00;19,5;99455;65;0,0093;0,0;5,6;215;8,8;-4,5;-3,25;464;0;0;23,6;26,4;23,4;21,9;16,1;13,1;11,9;11,7;-43,7;19,9;1737
2020-10-22 12:00:00;19,9;99430;60;0,0088;0,0;5,7;221;9,5;-4,17;-3,71;346;1;1;23,6;26,4;23,4;21,8;16,7;13,7;12,0;11,7;-43,7;20,0;1698
2020-10-22 13:00:00;20,0;99402;60;0,0088;0,0;5,0;219;8,1;-3,87;-3,19;269;0;0;23,6;26,5;23,5;21,8;17,0;14,1;12,1;11,7;-43,7;20,1;1701
2020-10-22 14:00:00;19,8;99370;62;0,009;0,0;4,7;208;8,2;-4,18;-2,16;214;2;5;23,5;26,4;23,5;21,8;16,9;14,5;12,3;11,7;-43,8;20,0;1727
2020-10-22 15:00:00;19,2;99367;64;0,009;0,0;4,0;202;6,8;-3,64;-1,48;96;30;2;23,5;26,4;23,5;21,8;16,3;14,7;12,5;11,8;-43,8;19,9;1639
2020-10-22 16:00:00;18,2;99400;68;0,0089;0,0;3,3;215;5,6;-2,73;-1,84;8;93;3;23,4;26,4;23,5;21,8;15,4;14,7;12,7;11,8;-43,8;20,0;1710
2020-10-22 17:00:00;14,2;99503;95;0,0097;0,82;1,7;286;3,8;0,49;-1,67;0;2;15;23,4;26,4;23,5;21,8;14,9;14,5;12,8;11,8;-43,9;19,9;1751
2020-10-22 18:00:00;14,0;99495;96;0,0097;0,0;1,2;188;2,1;-1,07;-0,17;0;3;4;23,7;26,4;23,5;21,9;14,3;14,3;13,0;11,8;-43,9;19,9;1611
2020-10-22 19:00:00;14,9;99522;91;0,0097;0,0;1,7;278;3,1;0,2;-1,63;0;1;3;23,9;26,4;23,5;21,8;13,7;14,1;13,0;11,9;-44,0;19,8;1717
2020-10-22 20:00:00;14,4;99542;95;0,0098;0,51;1,2;262;2,0;-0,13;-1,15;0;0;0;24,0;26,4;23,5;21,8;13,6;13,9;13,0;11,9;-43,9;19,9;1703
2020-10-22 21:00:00;13,5;99562;98;0,0095;0,0;1,2;202;1,9;-1,08;-0,48;0;0;0;24,2;26,4;23,5;21,8;13,3;13,7;13,1;11,9;-43,9;19,9;1646
2020-10-22 22:00:00;12,5;99562;99;0,009;0,02;1,0;235;1,7;-0,54;-0,72;0;0;0;24,4;26,3;23,5;21,8;12,9;13,6;13,0;12,0;-43,9;19,9;1603
2020-10-22 23:00:00;11,8;99542;98;0,0085;0,02;0,7;104;1,4;-0,29;0,26;0;0;0;24,4;26,3;23,5;21,8;12,3;13,3;13,0;12,0;-44,0;20,1;1690
2020-10-23 00:00:00;11,1;99550;99;0,0082;0,0;1,0;112;1,6;-0,26;0,12;0;0;0;24,4;26,3;23,5;21,8;11,9;13,1;13,0;12,0;-43,9;20,1;1646
2020-10-23 01:00:00;11,4;99512;100;0,0084;0,0;1,0;177;1,8;-0,88;-0,01;0;0;0;24,5;26,3;23,5;21,8;11,7;12,8;12,9;12,1;-44,0;20,1;1690
2020-10-23 02:00:00;11,7;99465;100;0,0086;0,02;0,6;136;1,4;-0,19;-0,08;0;0;0;24,4;26,4;23,5;21,8;11,8;12,7;12,9;12,1;-43,9;20,3;1732
2020-10-23 03:00:00;12,2;99440;100;0,0089;0,0;0,7;228;1,3;-0,45;-0,46;0;0;0;24,4;26,4;23,5;21,8;11,9;12,6;12,8;12,1;-43,9;20,4;1695
2020-10-23 04:00:00;12,2;99405;100;0,009;0,12;0,5;189;0,8;-0,2;-0,07;0;0;0;24,5;26,4;23,5;21,8;12,0;12,5;12,7;12,1;-43,9;20,3;1749
2020-10-23 05:00:00;12,6;99363;100;0,0092;0,61;0,7;172;1,2;-0,52;0,16;0;0;0;24,6;26,4;23,5;22,0;12,1;12,5;12,6;12,2;-43,8;20,4;1714
2020-10-23 06:00:00;12,6;99350;100;0,0092;0,0;0,8;174;1,5;-0,74;0,1;5;0;0;24,7;26,4;23,5;21,9;12,0;12,5;12,6;12,2;-43,8;20,5;1697
2020-10-23 07:00:00;12,8;99382;100;0,0093;0,0;0,8;200;1,5;-0,7;-0,3;24;0;0;24,8;26,4;23,5;22,0;12,1;12,5;12,6;12,2;-43,8;20,5;1666
2020-10-23 08:00:00;13,4;99388;100;0,0097;0,04;0,9;184;1,6;-0,49;0,12;32;0;0;24,8;26,4;23,5;22,2;12,4;12,5;12,5;12,2;-43,8;20,7;1680
2020-10-23 09:00:00;14,1;99385;100;0,0101;0,02;0,8;132;1,2;-0,58;0,47;70;0;0;24,8;26,4;23,5;22,0;12,8;12,5;12,5;12,2;-43,8;20,8;1639
2020-10-23 10:00:00;15,2;99380;98;0,0107;0,0;1,1;208;1,8;-1,02;-0,44;190;0;0;24,9;26,4;23,5;21,9;13,6;12,7;12,5;12,2;-43,8;20,7;1634
2020-10-23 11:00:00;16,2;99342;90;0,0104;0,0;1,5;279;2,8;0,28;-1,23;165;1;1;24,9;26,4;23,5;22,1;14,9;13,0;12,5;12,2;-43,8;20,6;1715
2020-10-23 12:00:00;15,8;99320;92;0,0103;0,0;2,4;307;4,0;1,52;-1,83;113;2;2;24,9;26,4;23,5;21,8;15,1;13,4;12,5;12,2;-43,8;20,5;1713
2020-10-23 13:00:00;14,0;99320;95;0,0095;2,75;3,2;270;5,6;0,26;-3,11;41;0;0;25,1;26,5;23,5;21,8;14,8;13,7;12,6;12,2;-43,8;20,5;1577
2020-10-23 14:00:00;13,8;99292;98;0,0098;0,05;1,2;158;2,3;-0,82;0,49;159;0;0;26,3;26,6;23,5;22,0;14,3;13,8;12,7;12,2;-43,8;20,5;1654
2020-10-23 15:00:00;15,0;99305;95;0,0101;0,0;1,2;136;2,3;-0,53;0,42;119;0;0;26,7;26,6;23,5;21,8;14,6;13,8;12,8;12,3;-43,8;20,5;1669
2020-10-23 16:00:00;14,9;99345;89;0,0095;0,0;2,6;254;4,7;-0,7;-2,5;24;0;0;26,8;26,6;23,5;21,8;14,0;13,8;12,8;12,3;-43,8;20,5;1679
2020-10-23 17:00:00;13,8;99387;91;0,009;0,1;2,2;241;3,5;-1,02;-1,88;0;0;0;26,9;26,7;23,5;21,8;13,3;13,7;12,9;12,3;-43,8;20,6;1690
2020-10-23 18:00:00;12,6;99440;94;0,0086;0,0;2,1;231;3,1;-1,3;-1,63;0;0;0;27,0;26,7;23,5;21,8;12,6;13,5;12,9;12,3;-43,8;20,5;1618
2020-10-23 19:00:00;12,2;99462;94;0,0085;0,02;2,0;211;3,0;-1,61;-1,06;0;0;0;26,9;26,7;23,5;22,0;11,9;13,2;13,0;12,3;-43,8;20,5;1625
2020-10-23 20:00:00;12,2;99518;92;0,0083;0,0;2,5;218;4,1;-1,96;-1,51;0;0;0;26,9;26,8;23,5;22,1;11,4;12,9;12,9;12,3;-43,8;20,5;1658
2020-10-23 21:00:00;12,6;99572;90;0,0083;0,0;2,6;186;4,1;-2,34;-0,41;0;0;0;26,9;26,9;23,5;21,8;11,3;12,6;12,9;12,3;-43,8;20,4;1708
2020-10-23 22:00:00;12,2;99595;91;0,0081;0,0;2,4;190;3,9;-2,01;-0,29;0;0;0;26,8;27,0;23,5;21,8;11,1;12,4;12,8;12,3;-43,8;20,4;1692
2020-10-23 23:00:00;12,8;99598;90;0,0083;0,0;2,0;239;4,4;-1,03;-1,75;0;0;0;26,8;27,0;23,5;21,8;11,1;12,2;12,7;12,3;-43,8;20,6;1698
2020-10-24 00:00:00;12,3;99592;91;0,0082;0,0;1,5;240;2,4;-0,73;-1,26;0;0;0;26,7;27,1;23,5;21,8;10,9;12,1;12,6;12,4;-43,6;20,7;1677
2020-10-24 01:00:00;12,4;99575;90;0,0081;0,0;1,9;228;3,5;-1,23;-1,42;0;0;0;26,7;27,2;23,5;21,8;10,6;11,9;12,5;12,4;-43,6;21,0;1656
2020-10-24 02:00:00;12,6;99595;89;0,0081;0,0;2,3;252;4,6;-0,7;-2,14;0;0;0;26,7;27,2;23,5;21,8;10,4;11,8;12,5;12,4;-43,6;20,9;1702
2020-10-24 03:00:00;12,6;99595;88;0,008;0,0;3,2;249;6,0;-1,11;-2,96;0;0;0;26,6;27,2;23,5;21,7;10,3;11,6;12,4;12,4;-43,5;20,7;1669
2020-10-24 04:00:00;12,0;99605;88;0,0077;0,0;2,4;226;4,2;-1,65;-1,77;0;0;0;26,6;27,3;23,5;21,7;10,3;11,5;12,3;12,4;-43,5;20,8;1705
2020-10-24 05:00:00;11,8;99613;87;0,0076;0,0;2,3;226;4,1;-1,49;-1,67;0;0;0;26,6;27,3;23,6;22,0;10,2;11,4;12,2;12,4;-43,4;20,8;1753
2020-10-24 06:00:00;12,5;99565;86;0,0078;0,0;2,8;205;5,2;-2,48;-1,18;10;0;0;26,5;27,4;23,6;22,0;10,2;11,3;12,1;12,4;-43,4;21,0;1653
2020-10-24 07:00:00;13,5;99562;83;0,008;0,0;4,7;210;7,5;-4,02;-2,4;43;0;0;26,5;27,4;23,6;21,7;10,6;11,3;12,1;12,4;-43,3;20,9;1667
2020-10-24 08:00:00;13,9;99570;81;0,008;0,0;6,3;206;11,0;-5,61;-2,78;201;0;0;26,4;27,4;23,6;21,7;11,1;11,3;12,0;12,4;-43,2;20,8;1747
2020-10-24 09:00:00;14,1;99575;78;0,0078;0,0;5,7;206;10,6;-5,05;-2,53;292;0;0;26,3;27,4;23,6;21,7;11,8;11,5;11,9;12,4;-43,2;20,7;1611